Home > Time Zones > World Clock > Weather > Sweden > Lund > Past weeks

Flag for Sweden Weather past 2 weeks in Lund, Sweden

Now
59 °F

Partly sunny.


Feels Like: 57 °F
Forecast: 57 / 67 °F
Wind: 9 mph from East

Location: Malmo / Sturup

Current Time: Aug 29, 2014 at 7:05:22 PM

Latest Report: Aug 29, 2014 at 6:20 PM


Visibility: N/A

Pressure: 29.89 "Hg

Humidity: 82%

Dew point: 54 °F

Location of LundLocation

Historic Weather in Lund — Graph

°F

Lund temperature yesterday

Maximum temperature yesterday: 68 °F (at 3:20 PM)
Minimum temperature yesterday: 48 °F (at 5:20 AM)
Average temperature yesterday: 58 °F

Past Weeks' High & Low Weather Summary

 TemperatureHumidityPressure
High70 °F (Aug 14, 5:50 PM)100% (Aug 15, 6:20 AM)30.01 "Hg (Aug 15, 6:20 AM)
Low43 °F (Aug 29, 4:20 AM)46% (Aug 27, 3:20 PM)29.39 "Hg (Aug 18, 11:50 AM)
Average57 °F77%29.76 "Hg
* Reported Aug 14 5:20 PM — Aug 29 5:50 PM, Lund, Weather by CustomWeather, © 2014

Note: Actual official high and low records may vary slightly from our data, if they occured in-between our weather recording intervals... More about our weather records

Advertising

Lund weather history for previous 24 hours

 ConditionsComfort  
Time TempWeatherWind HumidityBarometerVisibility
5:50 PM
Aug 29
59 °FLight rain. Partly sunny.10 mph88%29.92 "HgN/A
5:20 PM61 °FLight rain. Partly sunny.9 mph88%29.92 "HgN/A
4:50 PM63 °FLight rain. Overcast.10 mph77%29.92 "HgN/A
4:20 PM64 °FSunny.12 mph73%29.92 "Hg10 mi
3:50 PM63 °FSunny.10 mph77%29.92 "Hg10 mi
3:20 PM64 °FSunny.10 mph73%29.95 "Hg10 mi
2:50 PM64 °FSunny.12 mph73%29.95 "Hg10 mi
2:20 PM64 °FSunny.12 mph68%29.95 "Hg10 mi
1:50 PM66 °FSunny.13 mph64%29.95 "Hg10 mi
1:20 PM66 °FSunny.15 mph64%29.95 "Hg10 mi
12:50 PM64 °FSunny.13 mph68%29.95 "Hg10 mi
12:20 PM64 °FSunny.12 mph68%29.95 "Hg10 mi
11:50 AM64 °FSunny.10 mph68%29.95 "Hg10 mi
11:20 AM64 °FSunny.10 mph73%29.95 "Hg10 mi
10:50 AM64 °FSunny.9 mph68%29.95 "Hg10 mi
10:20 AM64 °FSunny.10 mph73%29.95 "Hg10 mi
9:50 AM63 °FSunny.8 mph77%29.95 "Hg10 mi
9:20 AM63 °FSunny.7 mph83%29.95 "Hg10 mi
8:50 AM59 °FSunny.7 mph82%29.98 "Hg10 mi
8:20 AM57 °FSunny.5 mph82%29.98 "Hg10 mi
7:50 AM54 °FSunny.5 mph88%29.98 "Hg10 mi
7:20 AM50 °FSunny.5 mph94%29.98 "Hg10 mi
6:50 AM46 °FClear.5 mph100%29.98 "Hg10 mi
6:20 AM45 °FClear.5 mph100%29.98 "Hg10 mi
5:50 AM45 °FClear.3 mph93%29.98 "Hg10 mi
5:20 AM43 °FClear.5 mph100%29.98 "Hg10 mi
4:50 AM43 °FClear.3 mph100%29.98 "Hg10 mi
4:20 AM43 °FClear.3 mph100%29.98 "Hg10 mi
3:50 AM45 °FClear.5 mph100%29.98 "Hg10 mi
3:20 AM45 °FClear.3 mph100%29.98 "Hg10 mi
2:50 AM45 °FClear.3 mph100%29.98 "Hg10 mi
2:20 AM45 °FLight fog.5 mph100%30.01 "HgN/A
1:50 AM45 °FLight fog.3 mph100%30.01 "HgN/A
1:20 AM45 °FLight fog.3 mph100%30.01 "HgN/A
12:50 AM46 °FLight fog.2 mph93%30.01 "HgN/A
12:20 AM46 °FLight fog.2 mph100%30.01 "HgN/A
11:50 PM
Aug 28
48 °FFog.1 mph94%30.01 "HgN/A
11:20 PM48 °FClear.1 mph100%30.01 "Hg10 mi
10:50 PM50 °FClear.2 mph94%30.01 "Hg10 mi
10:20 PM50 °FClear.No wind94%30.01 "Hg10 mi
9:50 PM52 °FClear.No wind94%30.01 "Hg10 mi
9:20 PM55 °FClear.1 mph88%30.01 "Hg10 mi
8:50 PM57 °FSunny.5 mph77%30.01 "Hg10 mi
8:20 PM59 °FSunny.6 mph72%29.98 "Hg10 mi
7:50 PM61 °FSunny.7 mph72%29.98 "Hg10 mi
7:20 PM63 °FSunny.7 mph68%29.98 "Hg10 mi
Weather by CustomWeather, © 2014

See weather overviewHow to use our weather pages